{"data":{"norad_id":63407,"epoch":"2026-09-20T05:21:45.668736Z","epoch_age_seconds":182671,"freshness":"STALE","line1":"1 63407U 25065J   26263.22344524  .00009092  00000+0  33939-3 0  9992","line2":"2 63407  42.9984  88.2515 0001591 269.9314  90.1355 15.27590372 82595","mean_motion":15.27590372,"eccentricity":0.0001591,"inclination_deg":42.9984,"raan_deg":88.2515,"arg_perigee_deg":269.9314,"mean_anomaly_deg":90.1355,"bstar":0.00033939,"rev_number":8259,"period_min":94.266108663324,"perigee_km":481.92642894941,"apogee_km":484.10964848273,"semimajor_km":6861.1550387161,"source":"CELESTRAK","updated_at":"2026-09-21T09:00:34.979160Z"}}